Home > Weather > Moreno Valley > Past weeks

Flag for USA Past Weather in Moreno Valley, California, USA — Yesterday and Last 2 Weeks

Now
72 °F

Clear.


Feels Like: 75 °F
Forecast: 69 / 95 °F
Wind: 6 mph from Northeast

Location: Riverside / March Air Force Base

Current Time: Jul 30, 2016 at 4:16:43 AM

Latest Report: Jul 30, 2016 at 2:58 AM


Visibility: 10 mi

Pressure: 29.80 "Hg

Humidity: 65%

Dew Point: 60 °F

Location of Moreno ValleyLocation

Past Weather in Moreno Valley — Graph

°F

Moreno Valley Temperature Yesterday

Maximum temperature yesterday: 103 °F (at 2:58 PM)
Minimum temperature yesterday: 71 °F (at 5:58 AM)
Average temperature yesterday: 85 °F

High & Low Weather Summary for the Past Weeks

 TemperatureHumidityPressure
High108 °F (Jul 23, 1:58 PM)96% (Jul 16, 5:58 AM)30.01 "Hg (Jul 16, 5:58 AM)
Low60 °F (Jul 18, 5:58 AM)6% (Jul 20, 12:58 PM)29.75 "Hg (Jul 29, 3:58 PM)
Average82 °F37%29.89 "Hg
* Reported Jul 15 2:58 AM — Jul 30 2:58 AM, Moreno Valley, Weather by CustomWeather, © 2016

Note: Actual official high and low records may vary slightly from our data, if they occured in-between our weather recording intervals... More about our weather records

Advertising

Moreno Valley Weather History for the Previous 24 Hours

Scroll right to see more
 ConditionsComfort  
Time TempWeatherWind HumidityBarometerVisibility
2:58 AM
Sat, Jul 30
72 °FClear.6 mph65%29.80 "Hg10 mi
1:58 AM73 °FClear.5 mph63%29.78 "Hg10 mi
12:58 AM74 °FClear.5 mph63%29.80 "Hg10 mi
11:58 PM
Fri, Jul 29
76 °FClear.3 mph57%29.80 "Hg10 mi
10:58 PM77 °FClear.7 mph53%29.81 "Hg10 mi
9:58 PM80 °FClear.3 mph44%29.81 "Hg10 mi
8:58 PM82 °FClear.5 mph45%29.79 "Hg10 mi
7:58 PM85 °FSunny.9 mph40%29.77 "Hg10 mi
6:58 PM91 °FSunny.10 mph32%29.75 "Hg10 mi
5:58 PM96 °FSunny.15 mph29%29.75 "Hg10 mi
4:58 PM98 °FSunny.16 mph27%29.75 "Hg10 mi
3:58 PM100 °FSunny.16 mph26%29.75 "Hg10 mi
2:58 PM103 °FSunny.14 mph22%29.75 "Hg10 mi
1:58 PM103 °FSunny.10 mph20%29.78 "Hg10 mi
12:58 PM101 °FSunny.8 mph21%29.79 "Hg10 mi
11:58 AM99 °FSunny.2 mph19%29.80 "Hg10 mi
10:58 AM95 °FSunny.3 mph23%29.83 "Hg10 mi
9:58 AM89 °FSunny.No wind28%29.83 "Hg10 mi
8:58 AM83 °FSunny.No wind36%29.84 "Hg10 mi
7:58 AM79 °FSunny.No wind41%29.84 "Hg10 mi
6:58 AM74 °FClear.No wind49%29.83 "Hg10 mi
5:58 AM71 °FClear.No wind49%29.82 "Hg10 mi
4:58 AM73 °FClear.No wind49%29.82 "Hg10 mi
Weather by CustomWeather, © 2016

See weather overviewHow to use our weather pages